Wind_Speed
12 12 12 12 13 13 13 13 13 13 13 14 14 14 14 14 15 16 16 16 15 14 14 14 14 13 13 14 15 16 17 18 18 17 14 14 13 11 11 11 10 8 9 11 13 14 15 14 14 13 11 9 7 8 7 7 7 9 7 10 10 8 8 7 2 6 10 17 21 22 21 17 17 20 20 19 19 19 18 16 13 13 18 20 24 27 26 27
12 12 12 12 12 12 13 13 13 14 14 14 14 14 14 14 15 15 16 16 16 16 14 14 15 14 14 14 14 15 16 17 18 17 16 15 13 12 12 12 10 8 8 10 11 13 14 14 14 13 12 10 10 10 8 7 3 7 8 10 8 6 9 7 1 8 11 16 20 21 20 17 17 18 19 19 19 19 17 16 16 18 21 22 24 26 25 25
12 12 12 12 12 12 13 13 13 13 14 14 14 14 14 15 15 14 15 16 17 16 15 15 15 15 14 14 14 14 15 16 17 17 18 15 13 12 13 12 11 9 9 10 12 13 14 16 14 14 13 11 11 10 6 4 4 8 10 10 9 6 8 8 3 9 11 15 18 19 20 19 17 17 18 20 20 19 18 20 21 21 23 24 24 24 24 24
12 12 11 11 12 12 13 13 13 13 13 14 14 14 14 14 14 14 15 16 16 16 16 16 15 15 15 15 14 14 14 15 16 16 17 16 14 13 13 13 12 11 11 10 13 16 17 18 14 13 14 12 12 9 2 4 5 5 7 7 9 5 7 9 4 8 11 14 16 17 19 20 18 16 18 20 20 21 21 22 20 20 23 25 23 22 23 23
12 12 12 12 12 12 13 13 14 14 14 14 14 14 14 14 14 14 14 15 16 16 16 16 16 16 15 15 14 14 13 14 16 15 15 16 15 14 13 13 13 13 12 12 14 18 19 19 13 10 14 14 11 8 5 7 8 6 3 5 8 3 7 8 7 8 9 12 14 15 17 18 18 17 17 17 19 22 23 22 18 16 20 23 22 22 22 22
13 13 13 12 12 12 12 13 14 14 14 15 15 14 14 14 14 13 14 15 16 15 15 15 16 16 15 15 14 14 13 13 14 13 13 15 15 15 15 14 14 15 14 13 14 18 20 20 15 10 11 13 11 8 6 6 8 8 4 5 7 2 5 7 10 8 6 8 11 14 15 17 19 19 17 16 17 21 24 23 20 17 18 21 21 20 20 20
15 14 14 13 12 12 11 12 12 13 14 15 15 15 15 14 14 14 13 14 15 15 15 15 16 16 16 15 14 15 14 14 14 11 10 13 15 15 15 15 15 16 14 13 13 17 20 19 16 12 9 11 11 8 9 9 7 8 7 6 6 1 4 7 8 7 6 6 8 11 13 15 18 18 18 17 17 19 22 22 22 21 19 21 21 20 19 18
15 15 14 14 13 12 11 11 12 12 13 14 15 15 15 15 15 14 14 13 14 15 14 15 15 16 16 16 15 14 13 15 17 15 11 11 13 15 16 14 15 15 13 13 12 15 19 19 15 12 11 11 9 5 7 9 7 8 12 7 4 2 4 6 7 6 8 9 9 10 12 14 15 17 19 18 16 18 22 22 24 25 22 22 22 20 19 18
15 15 15 14 14 13 12 12 12 12 12 13 14 14 14 15 15 15 14 14 13 14 14 14 15 15 16 16 14 13 15 17 17 16 13 11 11 15 16 15 15 15 14 13 12 15 17 18 15 12 12 10 5 6 7 10 9 8 12 10 6 3 3 5 6 6 7 9 10 11 12 15 15 17 20 18 17 19 22 23 26 26 23 23 22 21 20 19
15 15 15 14 14 14 13 13 13 13 11 12 13 14 14 14 15 15 14 14 14 13 13 14 15 15 15 16 13 13 15 15 16 16 14 13 11 13 16 16 16 15 15 14 12 15 16 16 12 11 10 7 9 12 11 12 8 5 10 12 10 5 3 5 5 5 7 8 10 10 11 15 16 18 21 19 18 20 22 24 25 25 24 23 23 22 20 19
16 16 15 15 14 14 14 14 14 13 12 12 12 13 13 13 14 15 14 15 14 13 13 13 14 14 14 15 14 13 13 14 18 15 13 14 13 12 15 17 16 16 17 15 13 15 17 15 10 9 6 7 8 9 10 10 6 8 10 9 8 5 4 6 7 6 7 7 8 9 10 15 16 17 18 19 19 20 22 24 24 26 25 24 23 22 22 20
16 16 16 15 14 14 13 13 14 13 12 12 12 12 12 13 13 14 14 14 13 13 12 12 14 14 14 14 13 13 11 13 19 15 11 13 13 12 14 17 17 17 17 16 14 15 18 15 11 11 6 5 4 5 7 9 8 11 9 9 11 10 9 8 7 6 7 5 5 7 11 15 16 16 15 17 18 19 22 24 24 27 26 24 23 22 22 20
16 16 15 15 14 13 13 12 12 12 11 11 11 11 11 12 12 13 14 14 13 12 11 12 13 13 14 13 13 15 12 11 17 14 10 11 12 13 14 16 18 18 19 19 15 13 17 16 13 13 9 8 7 7 8 9 9 6 6 12 14 15 15 11 9 9 7 3 2 4 11 16 17 17 15 16 17 19 24 25 25 27 26 26 25 22 22 20
16 16 15 15 14 13 13 12 11 10 10 9 9 10 9 10 11 12 12 13 12 11 10 10 11 12 13 12 14 16 14 15 18 14 10 10 11 12 14 16 18 19 20 22 17 11 12 15 14 14 13 15 14 11 10 11 11 7 7 13 13 14 20 17 14 13 9 4 4 4 8 16 18 16 16 17 18 20 24 26 27 27 27 26 25 22 22 19
17 17 16 15 14 13 12 11 10 9 8 7 7 8 8 9 10 12 12 12 11 10 9 9 10 12 11 12 15 13 12 14 16 13 8 9 10 12 14 15 18 20 20 22 19 12 10 14 14 14 14 18 16 11 9 10 12 11 11 15 13 12 19 21 17 15 10 6 8 5 5 14 18 16 17 19 21 21 23 26 27 28 28 25 23 23 23 20
18 18 17 16 15 13 11 10 9 8 7 7 7 8 8 9 10 12 12 11 9 8 7 8 9 10 10 13 15 12 10 11 12 11 8 8 10 11 14 16 18 20 20 22 20 14 11 14 14 15 15 17 14 9 8 8 10 12 13 16 16 14 19 25 18 14 12 8 10 7 5 12 18 18 18 19 20 21 23 27 28 28 28 25 24 25 26 23
18 18 17 16 15 13 11 9 8 7 7 7 7 7 7 7 8 9 10 8 6 5 5 6 5 6 7 8 11 14 12 10 11 8 7 8 9 9 12 16 19 20 22 21 17 15 12 16 17 18 18 17 14 9 9 11 12 15 16 17 19 17 23 27 20 16 15 12 11 9 5 9 16 19 20 19 20 21 23 27 31 30 29 27 25 27 27 25
18 17 17 16 15 13 10 8 6 5 5 4 4 4 4 4 7 9 9 7 3 2 2 3 2 2 1 6 7 11 9 7 9 8 8 10 10 8 11 15 19 21 22 19 15 15 13 18 19 16 16 17 17 14 14 14 15 17 17 18 20 17 21 27 23 22 20 14 11 11 8 9 15 19 19 21 21 21 22 26 31 32 29 28 27 27 26 24
18 17 17 16 15 13 10 7 5 4 3 2 2 2 1 4 9 11 9 6 1 5 4 5 7 8 9 12 7 3 3 5 10 10 9 12 11 12 11 13 17 19 21 19 16 17 13 15 18 15 16 17 19 20 18 16 16 19 18 14 16 17 20 27 26 25 23 18 14 13 10 10 16 20 21 23 23 22 23 27 32 31 30 29 27 27 26 24
18 17 17 15 15 13 10 8 6 5 4 2 1 1 1 2 10 12 7 2 5 8 4 8 13 7 9 11 4 3 4 6 10 11 11 12 11 14 13 15 16 15 18 18 16 16 13 14 17 18 18 17 18 20 19 18 16 16 14 11 14 16 17 26 28 26 23 19 16 13 11 10 13 18 22 24 24 24 25 28 31 32 31 30 28 28 26 23
17 17 16 15 14 13 11 9 7 5 4 2 1 2 3 1 7 10 9 0 8 8 4 8 13 4 6 8 3 5 6 7 9 11 12 13 12 12 15 16 16 16 18 17 13 13 14 14 16 17 16 15 15 16 16 19 19 16 16 13 15 16 15 23 28 26 21 16 16 14 12 11 11 14 19 24 26 26 27 28 30 31 32 30 30 30 28 25
16 16 15 14 14 13 12 11 9 7 7 4 1 2 4 2 4 7 9 2 6 6 5 10 11 4 3 5 4 7 7 7 9 11 12 14 13 12 15 16 16 17 18 17 13 13 16 17 16 13 12 14 15 16 16 16 17 16 17 15 16 17 13 22 27 26 19 16 17 16 13 11 11 11 12 19 25 25 25 27 28 30 31 30 30 30 28 28
16 16 15 14 14 13 12 11 12 13 11 9 8 7 4 1 3 6 5 0 3 2 3 8 9 8 7 5 10 11 8 8 10 11 13 15 14 13 13 14 15 15 15 19 19 17 17 15 15 14 12 14 15 17 17 16 17 17 18 19 21 17 23 29 26 22 17 16 15 15 15 13 13 12 9 13 19 24 24 25 28 29 29 29 31 30 28 29
15 15 14 14 13 12 11 12 15 18 16 14 14 12 8 8 10 6 6 1 1 1 1 6 5 8 9 7 10 11 8 9 10 11 13 15 16 12 12 13 14 15 14 16 18 19 16 10 11 16 15 16 16 16 16 17 18 18 19 22 20 13 22 27 28 22 16 17 16 18 18 16 17 15 13 15 17 21 24 26 29 27 27 30 31 30 28 30
14 14 14 13 13 11 9 11 15 18 17 14 15 16 12 11 12 5 3 2 0 3 3 5 6 7 9 8 7 7 7 9 10 13 14 12 17 13 11 13 13 15 15 15 16 18 17 10 9 15 18 18 18 17 17 16 16 17 19 23 20 11 10 17 23 21 19 24 23 21 15 14 21 17 16 20 18 20 23 27 30 26 26 28 29 29 29 31
13 13 13 13 12 11 7 7 10 15 18 14 13 15 10 8 10 6 2 5 3 2 3 4 6 7 9 10 6 4 7 10 9 13 15 10 17 14 11 12 13 15 14 14 16 17 17 14 12 15 16 17 18 19 18 15 15 20 19 18 16 12 8 11 20 22 24 30 30 27 13 12 21 20 19 21 19 19 22 26 28 26 26 27 28 30 29 30
12 12 13 12 12 11 8 9 8 11 13 8 4 6 6 10 8 6 5 6 1 4 3 4 5 5 7 11 10 6 6 7 8 13 16 11 15 17 16 14 12 14 13 14 17 17 17 16 15 16 16 17 20 21 17 14 18 22 18 12 10 11 12 13 20 24 28 33 33 30 20 15 20 22 21 22 20 19 20 23 26 26 26 27 28 30 30 29
10 11 11 11 11 10 10 11 9 6 5 2 2 3 10 11 7 9 6 4 4 5 3 4 2 1 1 7 13 11 5 3 9 15 15 11 13 18 19 16 11 11 14 16 16 17 15 15 17 18 19 19 19 20 17 15 20 22 18 14 11 10 11 9 11 14 17 24 30 31 22 11 15 22 21 20 23 21 19 21 24 25 25 26 28 29 29 30
9 9 10 10 9 8 9 10 10 8 8 9 8 8 8 7 9 10 6 3 4 3 3 3 1 3 3 2 11 14 7 4 6 11 13 9 11 19 19 14 10 11 14 17 17 16 13 12 17 16 17 20 17 19 20 17 20 23 18 16 14 7 7 5 6 9 7 10 21 29 23 12 11 23 27 24 27 25 21 20 21 22 22 24 27 27 28 30
7 8 8 9 8 6 6 8 11 11 13 13 10 7 6 7 8 6 4 1 3 3 3 2 4 4 4 4 9 11 8 7 4 8 13 8 9 19 17 11 11 11 12 18 19 19 13 9 15 16 14 18 17 18 21 18 17 19 16 14 12 7 7 6 8 9 6 5 17 21 19 14 10 22 34 28 25 26 23 21 20 21 20 21 24 25 28 30
6 6 7 8 8 7 6 9 11 11 14 11 5 7 10 8 6 3 2 5 1 1 2 5 4 3 6 7 9 10 10 10 7 7 12 8 8 16 13 10 11 9 10 13 15 16 13 9 14 18 16 14 11 14 21 21 16 15 16 14 12 9 10 12 11 7 3 2 12 17 15 14 10 22 34 26 21 23 19 15 17 20 20 19 23 25 28 29
5 5 5 7 8 8 8 9 9 9 11 8 6 10 10 7 5 3 4 6 3 5 3 8 7 2 6 9 9 11 11 11 10 7 8 8 9 13 12 9 9 10 9 11 14 13 11 11 12 15 17 12 9 12 18 21 17 15 18 17 11 3 4 7 5 2 1 2 9 13 8 7 9 23 33 25 22 21 14 10 11 15 18 18 21 25 27 28
4 4 4 5 6 7 7 6 7 7 6 5 8 10 7 4 4 6 6 5 4 6 4 6 4 2 8 11 11 10 8 8 9 8 9 9 9 12 13 9 8 11 8 7 14 14 10 13 13 14 18 15 14 15 15 16 16 16 20 20 11 2 3 1 0 2 1 5 12 11 2 9 15 22 29 25 22 19 14 12 11 13 16 16 18 22 24 26
3 4 4 5 5 6 6 5 7 8 7 6 7 8 6 4 6 11 11 9 6 3 4 3 2 4 11 11 11 13 10 7 6 7 10 9 9 11 13 10 11 14 10 8 9 11 10 14 13 12 16 14 18 21 16 13 14 16 20 19 14 6 2 3 2 2 2 9 14 10 1 8 15 19 26 25 22 20 17 15 14 14 15 16 17 20 22 25
3 3 6 8 6 4 4 3 5 7 8 9 9 9 7 5 8 11 12 12 9 7 7 4 1 4 8 5 8 11 9 7 6 8 9 9 10 12 13 11 10 13 8 4 7 8 10 17 14 11 15 15 20 26 19 12 14 19 18 16 16 13 7 7 6 8 11 11 8 2 11 13 17 21 24 25 24 23 19 15 15 15 16 18 18 19 20 22
3 1 5 8 9 8 5 3 5 8 9 10 8 8 7 7 9 8 7 9 10 12 9 2 2 5 5 6 7 4 5 5 7 9 10 9 9 7 4 7 3 2 1 3 2 5 6 12 11 9 15 14 15 24 22 11 8 15 19 17 16 15 13 11 9 12 14 7 4 14 22 23 21 18 17 21 23 21 20 18 17 16 16 18 18 17 17 19
4 2 3 5 9 13 10 5 7 10 11 11 8 8 6 5 8 7 4 7 9 10 11 8 7 8 3 6 5 4 3 3 6 9 9 8 11 12 11 5 5 8 6 4 2 4 12 9 7 4 13 18 13 16 23 16 7 10 22 23 16 15 18 13 3 4 7 2 7 18 29 28 21 17 18 21 21 20 21 20 18 17 17 17 17 17 17 18
8 6 5 6 9 11 9 3 5 10 10 10 9 6 6 4 6 8 4 6 8 7 9 10 9 10 7 3 3 3 3 5 5 6 1 7 5 7 11 5 7 10 6 5 3 3 8 8 6 5 6 18 16 13 18 19 13 9 16 22 17 12 14 13 5 1 2 0 4 11 18 18 18 23 26 24 23 21 20 19 19 19 18 18 17 18 19 20
8 7 6 10 9 5 6 3 4 7 4 8 11 6 7 5 5 7 4 4 6 6 11 10 7 7 7 4 3 1 2 5 4 5 9 9 5 6 7 5 6 7 4 5 3 2 6 8 7 2 10 9 11 14 14 14 14 10 8 14 18 11 6 9 8 6 5 1 4 3 2 0 10 24 28 26 25 23 22 23 23 22 21 20 20 19 19 20
7 8 7 10 6 4 10 6 5 3 2 6 10 6 7 6 4 6 5 4 5 6 9 8 7 7 3 4 4 2 1 3 0 6 6 4 4 7 3 3 5 2 2 2 1 3 8 7 7 6 7 2 7 15 15 11 12 16 12 9 12 11 10 10 9 12 12 3 6 4 2 1 9 17 22 26 28 26 25 25 26 28 27 24 24 23 22 22
8 9 7 6 1 8 10 4 4 7 6 3 5 4 5 5 3 5 4 3 5 5 5 3 6 8 2 2 2 2 5 2 4 5 3 7 2 6 5 4 4 3 5 2 1 5 7 4 4 7 5 7 9 12 16 13 10 13 13 10 9 8 11 9 7 12 16 9 9 12 5 5 11 14 15 20 25 27 25 24 27 30 30 27 27 26 26 26
8 9 5 8 7 2 5 4 8 10 6 1 4 3 4 4 4 6 3 2 4 3 4 5 5 5 4 3 4 10 9 4 6 3 5 4 4 2 5 5 5 3 3 4 3 3 6 4 6 10 8 6 7 9 13 13 11 9 9 12 11 8 14 12 4 6 8 3 15 19 11 8 14 15 13 14 19 22 22 23 24 27 28 27 26 25 25 24
4 6 7 7 6 3 1 6 7 5 2 3 5 2 1 3 4 6 6 4 4 3 3 5 4 4 8 6 6 8 4 6 4 3 4 4 4 4 6 3 4 3 1 1 2 7 9 7 8 10 6 6 9 11 13 11 13 13 11 16 18 13 16 15 5 5 2 11 17 14 7 9 15 15 13 13 13 14 17 21 21 24 26 25 23 23 21 20
2 4 6 4 5 5 3 6 4 3 3 5 3 2 2 2 1 5 8 7 5 5 4 3 5 5 9 5 6 3 4 8 8 3 4 3 2 2 5 2 1 2 1 2 5 4 2 2 4 5 4 5 4 9 11 10 11 11 8 13 20 16 14 12 5 2 4 12 17 11 6 13 20 16 12 11 9 10 13 17 18 22 26 26 23 20 19 18
5 5 7 0 6 7 5 5 4 4 5 3 2 3 2 4 5 2 5 5 4 5 4 2 4 4 5 2 3 3 5 7 7 5 3 3 2 3 5 4 2 0 2 2 3 3 5 2 1 2 3 5 3 3 2 4 2 7 8 10 17 19 14 7 2 6 8 10 14 15 16 21 23 19 15 12 11 11 11 13 15 19 23 23 21 17 15 16
9 9 4 2 2 3 3 4 4 4 4 2 2 3 2 5 8 3 4 3 2 3 3 2 2 1 1 0 1 4 6 6 4 4 4 2 1 3 5 7 7 2 3 5 2 4 4 4 2 1 2 3 4 4 8 10 6 4 7 10 15 20 17 8 3 7 13 14 12 15 23 27 23 20 20 17 13 11 10 10 11 14 16 16 16 14 12 12
10 11 8 3 4 4 3 4 4 4 4 3 2 4 3 3 4 6 7 5 2 3 3 2 2 2 2 1 1 4 9 8 5 4 6 6 5 6 8 9 8 4 8 8 2 4 5 5 3 4 7 4 6 7 7 8 8 4 3 9 15 18 16 11 3 4 7 8 11 18 25 27 24 21 20 18 13 10 7 5 6 9 12 12 12 11 12 13
8 8 4 2 4 6 3 5 6 6 5 3 3 4 4 4 3 4 8 7 3 3 5 4 3 2 2 2 2 5 8 7 6 6 6 7 6 6 6 6 6 5 6 6 2 4 5 6 3 6 9 8 8 10 7 7 6 6 9 9 12 15 13 7 3 3 3 3 10 22 25 25 28 25 19 15 14 10 8 6 6 7 10 12 12 12 13 14
8 7 6 5 3 3 2 4 5 5 5 4 5 6 6 6 5 3 6 8 4 3 6 7 5 5 3 1 4 6 8 6 4 7 6 5 5 3 5 4 7 10 8 6 2 1 2 4 3 7 3 3 5 8 9 8 7 7 9 7 7 13 8 7 10 6 3 3 9 20 25 26 28 26 22 18 16 13 11 10 9 7 8 12 14 14 13 15
7 6 8 9 5 1 0 3 2 4 6 5 5 6 5 5 5 4 5 8 8 6 6 6 6 6 6 4 4 5 6 5 3 4 5 2 3 3 6 4 2 8 10 7 3 1 0 1 4 7 3 2 4 3 7 9 7 8 11 10 13 14 9 10 11 7 4 7 14 22 27 28 26 24 24 21 16 12 11 12 12 10 9 10 13 14 12 13
7 6 7 8 5 3 3 4 2 2 2 5 4 5 4 2 3 3 3 6 9 7 6 6 5 3 3 6 8 6 5 5 4 5 7 3 2 1 3 5 5 3 5 4 3 2 0 0 2 5 7 9 6 3 5 8 8 9 10 11 14 11 5 7 8 7 8 13 23 27 28 29 26 24 23 20 16 15 13 11 10 10 10 10 11 13 12 12
8 8 8 7 5 7 5 4 2 3 1 2 4 4 4 4 3 2 4 4 5 5 5 4 3 2 3 5 6 6 8 8 7 6 7 4 1 2 2 5 5 4 4 4 2 2 1 2 1 2 5 8 9 7 5 4 5 6 4 6 10 8 3 1 3 4 5 11 20 25 28 29 28 27 25 20 18 19 18 13 11 11 11 12 13 14 14 13
Wind_Direction
316 314 312 310 308 306 304 301 297 292 287 282 279 277 277 277 275 274 273 269 266 262 260 259 257 255 253 250 247 243 239 237 236 235 233 235 234 228 222 219 218 208 199 199 199 191 187 186 183 183 183 172 128 96 92 118 209 257 287 303 338 23 43 42 129 147 156 162 161 162 162 159 148 141 142 141 138 138 135 134 139 154 162 154 148 149 149 149
318 316 314 312 310 308 305 303 300 297 293 288 282 277 274 273 273 274 272 271 269 265 262 260 259 256 253 252 249 246 243 240 237 234 233 231 231 227 221 223 220 209 203 194 195 191 182 181 181 181 177 164 123 92 75 82 186 232 252 272 310 8 46 36 166 151 151 163 165 168 165 162 156 147 148 146 139 140 137 138 142 151 160 157 153 153 150 149
317 317 316 315 314 311 308 305 301 298 295 291 286 281 276 272 271 271 271 270 269 268 266 262 260 257 254 252 250 248 246 243 238 233 233 228 226 225 220 221 218 212 204 190 188 183 178 177 173 175 167 146 123 100 67 83 185 224 241 263 299 336 48 49 178 161 153 163 168 171 168 168 163 153 152 149 146 144 136 139 153 160 162 160 158 156 151 150
316 315 314 313 313 311 310 307 303 299 295 292 288 285 280 275 271 268 268 268 267 267 266 265 262 258 255 252 250 248 246 247 241 232 231 228 222 219 218 218 215 212 206 195 186 179 179 173 161 162 154 128 116 111 99 188 203 235 233 269 316 336 67 62 135 167 154 156 168 170 165 167 167 161 156 154 151 144 139 148 165 170 163 163 163 157 152 152
317 314 313 311 310 308 307 305 303 301 297 294 289 286 283 280 274 268 266 265 266 264 263 265 263 260 255 251 250 248 245 246 241 230 228 227 221 216 215 214 210 211 208 197 190 185 177 162 150 158 153 134 120 121 136 183 222 259 241 304 338 51 91 73 115 153 152 150 164 170 168 169 168 165 159 159 157 147 148 160 172 175 166 163 164 158 154 155
321 318 317 315 313 309 306 303 300 298 296 293 289 286 283 280 276 271 265 263 263 261 260 260 261 261 256 251 247 246 241 239 241 233 227 224 219 213 211 210 207 209 209 200 194 192 177 154 150 168 159 144 146 170 174 181 229 250 242 298 321 39 91 88 111 135 150 155 165 168 174 175 168 164 156 160 168 159 160 167 167 171 170 165 164 162 158 159
324 323 322 320 318 314 308 303 298 296 293 290 288 286 284 281 277 273 267 262 261 259 257 255 257 259 257 252 244 242 238 236 241 233 222 221 217 211 208 207 206 207 209 203 198 199 183 154 151 166 167 154 148 163 180 193 228 245 239 267 296 289 110 109 110 118 147 166 175 172 176 177 170 165 160 163 174 171 168 170 165 163 170 169 166 164 162 165
326 324 323 320 318 314 310 303 297 294 291 289 287 285 284 282 279 275 270 264 260 257 254 252 253 255 256 253 244 239 234 232 238 233 221 217 213 211 208 204 205 205 206 203 199 204 186 156 152 165 170 157 135 122 162 198 222 228 229 240 274 236 123 128 130 125 146 167 179 176 174 174 170 166 166 169 173 173 168 168 164 161 167 173 171 167 165 168
328 325 322 319 315 312 308 300 295 291 288 287 286 285 283 281 280 277 273 267 262 257 252 249 249 250 252 252 247 239 232 230 236 236 227 220 213 210 208 202 202 199 199 201 198 203 183 156 155 167 172 159 171 237 217 215 223 217 220 229 253 244 148 155 154 138 147 172 183 179 174 170 169 166 164 169 172 169 165 166 165 161 165 173 175 171 168 171
329 326 322 319 315 311 306 298 292 290 288 283 281 283 282 280 279 277 274 268 264 259 253 248 245 245 246 250 244 235 237 237 237 236 231 228 219 211 207 202 199 192 195 197 198 201 175 155 156 159 181 199 231 238 206 206 223 202 213 231 250 250 178 175 173 154 151 174 190 191 182 171 175 172 164 169 172 168 165 166 167 163 163 172 178 173 169 172
330 327 324 321 318 314 309 302 295 293 290 281 277 279 279 279 277 276 275 270 265 260 255 249 245 242 240 244 240 232 240 244 236 228 229 230 221 213 207 201 196 188 192 192 198 199 162 145 156 155 198 234 230 220 202 220 212 164 186 214 224 212 189 191 188 173 155 164 182 194 190 175 179 180 170 171 172 174 172 168 169 166 162 170 179 174 171 174
332 329 327 324 322 318 313 307 301 299 293 283 280 278 278 279 279 277 275 271 266 260 256 250 247 242 236 239 234 228 233 247 245 226 217 230 220 215 206 197 195 187 188 189 193 189 154 143 163 166 194 228 191 201 229 237 196 167 181 191 184 184 202 216 209 189 170 173 168 181 189 177 178 180 173 170 172 180 181 172 169 167 162 171 181 176 173 175
333 331 329 327 327 326 323 317 310 303 294 286 284 284 283 282 282 282 277 274 268 259 254 250 247 242 238 234 221 217 213 234 253 237 217 230 218 216 209 194 192 186 186 187 179 169 155 153 171 182 203 213 201 229 240 222 201 180 188 193 178 174 193 211 222 207 189 202 146 166 191 181 178 180 175 175 176 181 182 176 170 167 163 173 185 178 174 176
336 334 332 331 331 331 330 329 324 311 298 291 289 292 295 291 288 287 282 277 269 259 252 247 245 241 235 227 218 221 221 228 249 249 229 228 215 212 209 194 191 186 188 189 170 154 169 172 183 200 210 208 208 221 215 195 198 195 196 202 186 181 192 201 224 218 190 169 142 167 197 186 181 179 179 181 180 177 179 177 171 168 165 175 187 175 171 177
340 337 334 333 332 330 329 328 328 323 312 305 305 305 303 300 295 295 292 281 270 257 248 240 238 237 228 222 221 222 227 234 251 257 238 219 209 207 203 194 190 185 190 192 169 151 194 197 195 207 207 205 204 201 197 187 189 195 203 203 205 215 193 188 218 227 209 173 150 170 190 182 182 179 178 181 179 174 175 176 170 167 165 177 186 168 172 182
342 339 337 335 332 328 326 323 323 326 325 321 318 310 304 304 304 305 302 289 271 253 242 239 238 235 225 223 226 225 222 227 243 248 232 204 192 193 194 190 186 183 187 190 172 156 190 202 202 216 209 198 194 179 181 194 193 198 204 201 214 222 178 173 201 222 224 204 161 165 169 179 185 183 179 178 179 174 172 172 169 167 167 179 183 168 179 185
344 343 342 339 337 332 328 324 321 320 317 316 312 306 307 317 326 323 317 305 277 249 233 229 237 243 241 242 243 238 225 223 229 223 209 188 169 176 187 183 181 183 184 183 173 161 186 205 204 215 208 187 180 184 203 218 214 202 201 210 219 209 172 170 187 200 211 209 178 170 169 184 189 187 180 177 180 178 176 171 168 170 170 180 183 173 186 185
347 347 347 346 344 339 338 337 336 333 321 319 313 306 321 2 4 351 340 331 283 191 176 191 164 119 42 349 294 250 236 229 209 185 180 159 149 185 193 177 177 182 180 177 177 175 194 212 208 210 208 189 176 192 217 214 201 194 198 217 223 214 189 184 190 194 191 184 179 174 171 188 193 191 183 178 181 183 183 174 170 174 172 180 184 178 190 186
351 351 350 350 347 348 355 357 7 15 9 7 331 311 32 50 19 359 351 351 203 159 143 159 138 106 60 18 351 243 218 202 175 171 171 145 158 198 187 166 174 181 179 180 187 187 193 208 207 203 203 198 183 189 205 192 186 196 198 205 219 233 218 197 193 193 181 168 172 173 166 183 192 194 189 182 184 187 186 178 175 176 174 181 185 182 193 185
353 353 354 353 350 355 2 10 25 27 42 45 321 164 191 64 27 356 343 34 161 170 172 159 148 120 43 27 31 156 190 195 174 172 162 154 184 197 177 164 171 181 183 185 189 190 196 202 206 206 198 198 193 193 198 200 219 230 227 220 220 241 225 193 184 182 179 168 164 167 162 172 185 192 194 187 186 190 190 184 181 179 179 183 181 183 195 183
356 357 356 355 353 356 2 13 24 31 54 26 229 172 265 97 51 340 316 320 164 177 226 180 156 128 45 67 120 184 193 189 182 183 171 175 193 189 180 172 172 185 184 181 188 193 201 205 208 211 200 193 202 211 213 224 243 258 266 255 227 238 227 192 178 168 174 172 160 170 172 170 177 183 193 194 192 193 193 190 188 185 184 185 181 184 191 181
360 360 357 356 354 357 5 13 21 43 61 49 41 341 305 118 84 311 299 287 175 185 232 193 166 157 100 106 179 203 196 186 184 191 184 180 185 184 185 178 180 193 181 176 191 200 204 211 210 209 206 200 205 221 231 242 249 253 262 258 245 240 189 164 166 158 167 172 161 175 180 171 176 179 190 198 198 194 194 195 194 193 190 187 185 187 189 181
3 2 359 358 355 0 12 23 38 50 51 41 29 1 323 3 338 272 249 182 163 194 244 205 175 170 176 172 190 195 197 201 194 194 191 179 177 184 187 181 184 193 188 183 190 200 208 218 210 198 206 215 216 221 229 243 247 253 254 252 261 235 161 150 164 165 171 177 170 175 175 171 177 183 187 192 199 198 195 197 196 198 198 192 190 191 192 188
5 3 2 360 1 10 23 45 54 50 42 30 22 16 15 360 333 274 226 243 134 91 227 233 228 196 197 188 191 200 198 209 210 206 207 185 174 183 188 187 187 192 200 195 193 202 211 231 219 197 198 215 226 225 226 235 239 250 251 245 258 227 168 162 166 169 170 169 175 172 163 173 182 181 180 178 192 200 196 196 196 198 202 198 195 196 194 193
7 6 5 2 8 19 38 62 61 52 42 28 19 11 9 3 347 322 228 276 132 102 124 212 238 218 203 184 204 241 217 219 217 211 226 195 172 183 187 189 194 198 203 199 202 212 214 229 230 204 198 209 225 227 225 231 234 242 244 241 253 247 193 176 168 169 160 154 176 186 164 177 192 186 177 176 184 193 194 195 195 195 199 200 199 199 196 197
11 9 10 7 12 22 41 58 54 50 40 28 19 358 353 27 20 23 21 329 309 159 125 174 211 220 208 191 201 237 208 218 203 205 239 210 168 175 189 202 201 199 205 202 206 218 215 214 220 212 205 209 220 226 227 224 226 237 239 243 256 262 255 213 183 176 171 170 188 203 189 168 191 195 183 182 185 187 191 197 199 198 197 199 200 202 202 200
14 16 17 15 19 25 35 41 45 55 46 25 346 330 26 62 43 45 30 339 5 142 134 160 209 245 226 210 208 192 193 216 185 201 236 225 177 178 193 210 206 197 203 206 210 215 212 209 211 212 209 210 217 224 226 214 220 232 226 221 247 258 257 225 190 185 188 184 185 199 201 165 179 194 188 186 186 182 189 196 201 202 199 199 199 203 205 202
16 20 21 22 27 31 40 48 46 52 58 36 282 45 68 69 49 47 25 338 87 106 146 160 162 74 164 221 212 197 181 177 177 192 217 225 194 188 196 200 206 216 207 211 221 210 207 214 210 208 208 210 219 223 217 206 219 225 213 220 257 262 248 233 212 212 198 177 173 189 197 159 164 183 181 188 189 182 185 189 193 198 201 202 200 200 201 200
16 19 25 29 31 36 41 56 63 64 79 81 68 63 71 69 49 30 348 304 92 113 185 199 210 130 110 224 205 198 198 198 188 180 192 220 202 194 205 208 229 254 213 212 230 212 206 215 208 212 209 206 216 217 208 205 220 227 230 253 274 256 234 253 240 238 235 179 181 191 185 146 147 173 176 188 196 190 182 181 186 193 199 204 204 202 200 200
13 16 29 32 32 39 40 63 79 81 84 79 64 57 59 48 25 347 304 45 93 127 143 198 233 190 172 197 196 201 211 197 173 161 179 217 210 194 208 225 251 265 214 218 240 226 220 214 204 211 209 209 217 207 202 206 218 228 241 268 279 258 244 246 217 224 270 231 206 209 190 159 156 180 183 189 196 190 179 177 185 190 195 200 204 204 201 201
7 13 27 32 36 43 43 62 73 78 80 69 38 48 53 39 8 315 24 30 10 111 109 156 159 187 196 196 194 205 209 179 157 170 184 204 209 200 217 244 248 243 209 226 246 236 233 221 202 201 196 204 209 190 189 196 208 226 238 254 272 267 228 215 220 228 285 211 205 218 201 174 173 185 188 193 194 187 179 178 185 190 193 196 200 202 201 202
1 11 24 33 41 45 45 55 58 70 74 56 48 54 38 14 353 308 339 355 319 326 327 159 137 108 186 192 195 201 206 176 157 179 197 203 206 209 226 239 231 220 214 221 221 223 229 216 205 201 199 192 173 182 194 201 216 228 230 239 254 270 193 203 227 213 240 250 214 226 220 169 165 180 183 187 191 190 188 182 183 191 193 191 195 198 200 203
359 8 22 40 51 57 57 57 57 66 58 38 66 56 6 327 347 325 325 359 353 336 343 154 137 97 178 197 193 186 206 191 169 182 192 197 201 208 216 213 204 215 246 253 213 209 214 217 217 197 193 193 182 196 209 211 222 217 216 232 238 145 90 186 148 67 312 253 228 241 271 105 125 163 178 179 181 185 187 180 172 181 188 188 193 196 199 205
8 24 40 59 67 65 60 59 58 55 39 32 61 41 336 294 358 353 349 11 30 353 313 274 292 176 190 208 183 174 201 197 167 184 191 191 191 198 207 210 216 227 260 295 241 224 211 220 226 184 182 203 201 202 206 203 213 213 213 228 233 214 162 153 129 87 214 247 251 259 249 113 116 145 168 171 169 169 168 170 166 168 178 186 195 199 201 204
351 36 66 73 71 65 54 51 44 34 32 38 36 18 348 328 2 5 355 7 22 351 313 289 346 178 195 187 158 181 219 210 177 182 191 196 194 196 202 207 229 240 248 295 275 259 215 211 219 198 204 218 203 199 205 217 222 217 217 224 224 219 197 179 189 194 200 232 265 91 108 123 124 136 155 157 157 157 151 155 167 172 176 182 193 203 205 206
326 337 85 75 59 59 63 65 54 44 44 40 7 338 340 340 352 357 350 1 360 345 344 31 7 295 235 146 147 226 277 228 202 194 194 186 160 128 135 173 188 271 119 79 267 311 299 233 211 199 211 204 194 203 209 227 234 210 214 220 212 206 208 210 206 206 211 214 126 111 114 125 131 136 146 141 143 152 148 154 173 180 177 179 190 203 208 209
41 58 94 68 44 42 36 37 62 62 56 36 347 316 344 357 355 356 359 11 357 344 350 359 357 334 304 147 163 293 314 197 206 208 202 164 124 66 50 113 72 38 54 66 142 7 344 286 235 254 220 191 189 214 211 219 242 208 209 213 208 209 222 236 248 209 222 199 134 140 140 145 147 144 146 139 139 148 154 162 176 180 178 178 187 198 203 205
67 76 74 47 52 42 14 355 60 56 49 17 343 332 356 353 7 11 12 14 359 354 6 4 3 3 13 99 192 262 235 220 244 252 329 90 113 27 34 74 44 41 57 23 357 24 359 301 281 336 191 180 187 208 211 218 230 221 205 201 203 215 226 238 262 272 244 120 132 140 143 153 151 145 149 151 145 143 150 163 173 177 179 183 190 199 204 201
64 79 61 37 69 78 337 326 45 40 33 345 338 351 360 353 26 18 8 12 354 18 41 26 1 16 37 29 335 286 228 241 266 341 27 60 61 17 48 60 17 32 40 8 11 40 357 308 281 140 126 152 192 202 214 219 209 207 196 190 203 217 233 244 249 238 239 184 114 104 360 255 152 153 154 149 145 146 154 162 168 172 174 183 193 200 206 203
51 76 79 49 89 218 308 351 50 23 241 314 320 312 339 349 27 16 8 17 360 23 35 15 9 41 44 341 6 100 265 271 97 46 57 112 49 19 20 322 340 339 302 348 107 313 325 316 277 204 153 183 224 207 218 222 202 202 199 204 224 227 228 251 266 244 239 243 108 123 322 45 152 166 154 141 145 155 163 166 170 174 173 177 187 193 200 200
55 72 86 37 74 241 285 330 4 302 254 297 322 293 327 335 351 4 7 28 29 45 47 34 45 48 16 287 26 16 352 17 133 73 94 183 164 16 2 353 348 265 259 313 47 304 312 345 291 268 270 278 253 224 228 237 224 203 200 229 252 237 228 247 283 253 249 247 163 148 137 128 147 157 144 140 152 160 168 172 172 176 175 177 187 195 201 200
82 96 90 352 349 269 264 292 326 306 256 299 342 306 333 348 357 4 8 46 47 58 76 98 91 64 95 115 351 336 354 74 153 116 80 137 162 17 10 31 17 318 274 333 15 265 272 292 281 288 304 279 236 224 237 241 227 205 207 229 232 233 236 237 275 287 284 229 155 142 124 133 149 156 156 160 168 168 175 181 181 185 185 187 195 200 203 206
92 107 83 358 352 87 238 287 315 317 253 329 331 296 36 33 26 29 32 39 55 52 59 80 79 113 132 105 13 341 5 74 99 145 117 114 171 260 298 328 12 10 212 249 189 207 235 256 271 286 290 238 210 205 214 212 214 231 240 226 222 229 229 224 254 321 69 124 137 125 105 145 154 162 170 174 185 189 188 192 198 202 202 204 207 207 209 212
29 95 90 8 348 53 19 313 327 22 5 343 349 21 34 12 30 77 57 34 42 55 62 73 59 108 149 125 33 38 129 101 82 121 186 195 203 310 324 299 317 38 98 164 175 193 261 268 265 292 297 278 229 181 187 185 203 242 258 222 223 236 236 222 229 340 89 137 147 129 118 159 160 159 156 161 191 218 213 211 212 211 211 213 213 214 218 217
46 99 125 76 346 10 10 354 6 18 6 13 51 37 41 13 355 62 75 20 16 47 52 87 61 88 146 147 35 89 140 131 101 98 141 208 241 24 14 340 305 352 60 77 142 84 43 77 222 33 29 329 321 125 59 32 197 239 259 244 234 242 255 258 133 83 84 125 147 137 137 153 157 156 154 165 200 227 238 240 224 205 202 206 207 210 213 211
54 58 65 91 39 354 337 357 353 346 2 51 73 31 57 23 360 27 77 24 2 61 43 53 42 12 97 82 16 94 114 131 118 85 87 91 8 33 44 19 1 30 61 19 28 107 115 173 217 19 65 10 337 337 360 5 356 251 243 261 255 249 258 289 17 105 115 119 128 142 151 154 155 161 165 174 201 222 237 247 225 193 184 190 197 198 190 183
63 40 14 57 80 26 29 55 29 18 30 48 53 24 29 38 30 55 57 29 30 77 51 40 38 342 321 306 330 78 105 119 111 76 67 66 29 17 52 44 13 42 70 35 10 167 172 182 190 282 271 277 313 316 333 341 339 346 311 290 282 274 272 277 306 89 105 100 121 152 159 152 151 162 171 179 194 204 203 202 190 176 173 179 184 182 171 161
79 64 32 46 21 356 32 61 37 32 38 52 71 43 31 54 58 42 37 31 41 76 60 52 65 54 351 271 203 121 128 133 122 127 111 77 44 24 51 47 10 33 60 35 60 164 191 187 177 306 281 257 273 287 299 316 318 336 336 308 285 288 286 278 330 355 318 30 130 160 165 155 156 165 170 177 182 174 158 149 155 169 173 173 170 170 170 165
120 124 143 133 54 346 359 33 19 8 20 63 89 62 56 64 63 55 48 45 43 74 73 67 76 78 50 269 191 156 159 159 146 172 165 81 58 52 46 41 36 37 20 351 13 108 203 206 272 322 296 227 281 276 269 288 299 309 328 339 317 315 335 40 26 1 296 29 118 160 165 156 162 167 164 170 179 176 164 154 148 154 168 174 175 174 174 174
153 148 146 131 92 29 340 45 12 331 8 57 79 54 69 80 65 75 76 65 61 57 67 79 86 82 71 90 143 159 168 157 134 178 179 53 11 8 18 6 21 32 18 4 22 52 93 248 308 312 284 269 328 306 266 277 291 298 304 316 327 335 9 32 18 32 107 126 138 154 156 153 158 161 158 167 181 177 167 160 155 159 176 182 175 171 175 180
186 172 147 131 95 105 124 58 20 278 33 87 81 47 64 69 46 54 50 81 94 76 66 88 91 83 91 106 118 120 120 127 119 141 155 130 70 69 5 313 286 340 7 6 32 55 217 276 319 307 285 274 280 300 289 276 273 287 298 308 318 327 1 16 22 65 107 140 149 153 156 156 159 161 161 167 168 158 157 163 169 181 198 196 172 163 172 181
190 188 172 151 102 92 83 19 342 232 249 64 63 67 73 39 28 48 24 54 107 85 65 92 94 113 155 149 157 160 158 174 185 172 168 159 113 189 259 310 308 285 265 276 359 50 313 237 209 317 288 275 272 267 264 262 265 285 312 317 318 315 282 322 43 95 130 148 157 163 163 158 159 165 169 168 162 161 164 165 170 180 192 197 183 171 174 179
Height
3135 3134 3133 3132 3132 3131 3130 3130 3129 3129 3128 3128 3128 3128 3128 3128 3128 3128 3128 3128 3128 3128 3129 3129 3130 3130 3131 3131 3132 3132 3133 3134 3135 3136 3138 3139 3140 3142 3143 3144 3145 3146 3147 3148 3149 3151 3153 3155 3157 3158 3160 3161 3162 3163 3165 3166 3168 3168 3169 3169 3170 3170 3169 3168 3168 3167 3167 3168 3169 3170 3172 3174 3175 3176 3177 3178 3179 3180 3181 3182 3184 3186 3188 3188 3189 3190 3191 3193
3134 3133 3132 3131 3131 3130 3129 3129 3128 3127 3127 3127 3127 3126 3126 3126 3126 3126 3126 3126 3126 3127 3127 3128 3128 3129 3129 3130 3130 3131 3132 3132 3134 3135 3137 3138 3139 3141 3142 3143 3144 3145 3146 3147 3149 3150 3152 3154 3156 3158 3160 3161 3161 3164 3165 3166 3168 3169 3170 3171 3170 3170 3169 3167 3168 3168 3168 3168 3169 3170 3172 3174 3175 3176 3178 3179 3179 3181 3182 3183 3185 3186 3187 3189 3190 3192 3193 3194
3133 3132 3131 3131 3130 3129 3128 3128 3127 3126 3126 3125 3125 3125 3124 3124 3125 3125 3125 3125 3125 3125 3126 3126 3126 3127 3127 3128 3129 3129 3130 3131 3132 3134 3135 3137 3139 3140 3141 3142 3143 3145 3145 3146 3147 3149 3151 3153 3155 3157 3159 3160 3161 3163 3164 3167 3169 3171 3171 3171 3170 3170 3169 3167 3167 3168 3168 3169 3170 3171 3172 3173 3175 3176 3178 3179 3180 3182 3182 3183 3184 3185 3186 3188 3190 3192 3194 3195
3132 3131 3131 3130 3129 3128 3127 3127 3126 3125 3125 3124 3123 3123 3123 3123 3123 3123 3123 3123 3123 3124 3124 3125 3125 3125 3126 3127 3127 3128 3129 3129 3130 3132 3133 3135 3137 3138 3140 3141 3143 3144 3144 3146 3147 3148 3150 3151 3154 3157 3158 3160 3162 3162 3164 3167 3170 3171 3171 3171 3170 3170 3170 3168 3168 3169 3169 3170 3171 3172 3173 3174 3176 3177 3179 3179 3181 3182 3183 3184 3185 3185 3186 3188 3190 3193 3195 3196
3132 3131 3130 3129 3128 3127 3126 3125 3125 3124 3123 3122 3122 3122 3121 3121 3121 3121 3121 3121 3121 3122 3123 3123 3123 3123 3124 3125 3126 3127 3127 3127 3128 3130 3132 3133 3135 3137 3139 3140 3141 3143 3143 3145 3146 3147 3148 3150 3153 3156 3158 3159 3161 3162 3164 3168 3170 3170 3171 3170 3170 3171 3170 3169 3169 3170 3171 3172 3173 3174 3174 3175 3177 3178 3180 3181 3182 3183 3184 3185 3187 3187 3188 3189 3191 3193 3195 3197
3131 3130 3129 3128 3127 3126 3125 3124 3123 3122 3122 3121 3120 3120 3120 3119 3119 3119 3120 3119 3119 3120 3121 3121 3121 3122 3122 3123 3124 3125 3126 3126 3127 3129 3131 3132 3134 3136 3137 3139 3140 3141 3143 3144 3145 3146 3147 3149 3152 3156 3158 3158 3160 3161 3164 3169 3170 3170 3171 3170 3170 3170 3170 3170 3170 3171 3172 3173 3174 3174 3175 3176 3177 3178 3180 3182 3183 3184 3184 3185 3187 3189 3191 3192 3193 3194 3196 3198
3130 3129 3128 3127 3126 3125 3124 3123 3122 3121 3120 3119 3119 3118 3118 3118 3118 3118 3118 3118 3118 3118 3119 3119 3120 3120 3121 3121 3122 3123 3124 3125 3126 3128 3130 3131 3132 3134 3136 3137 3139 3140 3142 3143 3145 3146 3146 3148 3151 3155 3157 3159 3160 3161 3164 3168 3170 3170 3170 3170 3169 3170 3170 3171 3171 3172 3172 3173 3174 3175 3175 3176 3178 3179 3181 3182 3182 3184 3184 3186 3187 3189 3192 3193 3194 3196 3197 3199
3128 3127 3126 3125 3125 3124 3123 3122 3121 3120 3119 3118 3117 3117 3117 3116 3116 3116 3116 3116 3116 3116 3117 3118 3118 3119 3119 3120 3120 3121 3122 3123 3124 3127 3129 3130 3131 3133 3135 3136 3138 3140 3142 3143 3144 3146 3147 3148 3151 3154 3157 3159 3160 3162 3165 3167 3169 3170 3168 3168 3169 3169 3171 3171 3172 3172 3172 3173 3174 3175 3175 3177 3178 3179 3181 3182 3182 3184 3185 3187 3188 3189 3192 3194 3195 3197 3198 3200
3127 3126 3125 3124 3123 3122 3121 3120 3119 3119 3118 3117 3116 3115 3115 3115 3114 3114 3114 3114 3114 3115 3115 3116 3116 3117 3118 3118 3119 3120 3120 3122 3124 3126 3128 3129 3130 3132 3134 3135 3137 3139 3141 3142 3144 3145 3146 3148 3151 3154 3157 3159 3160 3162 3164 3166 3168 3169 3168 3167 3168 3169 3170 3171 3173 3173 3173 3174 3174 3175 3175 3177 3178 3179 3181 3182 3182 3184 3185 3187 3189 3189 3192 3194 3196 3197 3199 3200
3126 3124 3123 3122 3121 3120 3120 3119 3118 3117 3116 3116 3114 3114 3113 3113 3113 3112 3112 3112 3113 3113 3114 3114 3115 3115 3116 3117 3118 3118 3118 3121 3123 3124 3126 3128 3129 3131 3132 3134 3136 3138 3140 3141 3143 3144 3145 3148 3152 3154 3157 3158 3160 3160 3162 3163 3165 3168 3168 3166 3166 3168 3169 3171 3173 3173 3173 3174 3174 3175 3175 3176 3178 3179 3180 3181 3182 3184 3186 3187 3190 3191 3191 3194 3196 3198 3200 3201
3124 3122 3121 3120 3119 3118 3118 3117 3116 3115 3115 3114 3113 3112 3112 3111 3111 3111 3111 3111 3111 3112 3112 3113 3113 3114 3114 3115 3117 3117 3118 3119 3120 3123 3125 3126 3128 3130 3131 3133 3135 3137 3139 3140 3142 3144 3145 3149 3152 3155 3157 3158 3159 3160 3161 3162 3163 3166 3169 3167 3164 3166 3168 3170 3172 3173 3173 3174 3174 3175 3175 3176 3177 3178 3180 3181 3182 3184 3186 3188 3190 3191 3192 3195 3196 3198 3200 3201
3122 3121 3119 3118 3117 3116 3115 3115 3114 3114 3113 3112 3111 3111 3111 3110 3110 3109 3109 3109 3109 3110 3111 3111 3112 3112 3113 3114 3116 3116 3118 3118 3118 3121 3124 3125 3127 3129 3130 3132 3134 3136 3138 3140 3142 3143 3145 3148 3152 3154 3157 3158 3160 3160 3160 3161 3162 3163 3167 3168 3166 3164 3166 3169 3171 3172 3173 3173 3174 3175 3175 3176 3177 3178 3180 3182 3183 3184 3186 3188 3190 3191 3193 3196 3197 3198 3200 3202
3121 3120 3118 3117 3116 3115 3114 3113 3112 3112 3111 3111 3110 3110 3110 3109 3109 3108 3108 3107 3108 3108 3109 3110 3110 3111 3112 3113 3114 3115 3117 3118 3117 3120 3123 3124 3126 3127 3129 3131 3133 3135 3137 3139 3141 3143 3145 3148 3150 3153 3155 3157 3158 3159 3159 3160 3162 3162 3163 3166 3167 3166 3165 3167 3170 3171 3172 3173 3174 3175 3175 3175 3177 3178 3180 3181 3182 3184 3185 3187 3189 3191 3192 3196 3197 3198 3200 3202
3120 3119 3117 3116 3115 3114 3113 3112 3111 3110 3110 3109 3109 3109 3109 3108 3108 3107 3106 3106 3106 3107 3108 3108 3109 3110 3111 3112 3113 3114 3116 3117 3117 3119 3121 3123 3124 3126 3128 3130 3132 3134 3136 3138 3139 3142 3146 3147 3149 3151 3153 3154 3155 3156 3157 3158 3160 3162 3163 3164 3165 3166 3164 3164 3168 3169 3171 3173 3174 3174 3174 3175 3176 3178 3180 3181 3182 3184 3185 3187 3189 3191 3192 3195 3197 3199 3201 3202
3119 3118 3117 3115 3114 3113 3112 3111 3110 3109 3109 3108 3108 3108 3108 3107 3107 3106 3105 3105 3105 3105 3106 3107 3108 3108 3110 3110 3111 3113 3115 3116 3116 3118 3120 3121 3123 3125 3126 3129 3131 3133 3135 3137 3138 3141 3145 3147 3148 3149 3150 3152 3153 3155 3157 3158 3159 3160 3163 3163 3163 3164 3163 3164 3166 3167 3170 3172 3173 3174 3174 3175 3177 3178 3179 3181 3182 3184 3186 3187 3189 3191 3193 3195 3198 3199 3202 3203
3118 3117 3116 3115 3113 3112 3111 3110 3109 3108 3108 3108 3108 3108 3107 3107 3106 3105 3104 3104 3104 3104 3105 3106 3107 3107 3109 3109 3110 3112 3114 3115 3116 3117 3119 3120 3122 3123 3125 3128 3130 3132 3135 3137 3137 3140 3144 3146 3147 3148 3149 3151 3153 3155 3156 3157 3159 3159 3161 3162 3161 3163 3163 3164 3166 3167 3169 3170 3172 3174 3174 3175 3176 3177 3179 3181 3182 3183 3185 3187 3189 3191 3193 3196 3198 3200 3202 3203
3117 3116 3115 3114 3112 3111 3110 3109 3108 3108 3108 3107 3107 3107 3106 3106 3106 3105 3104 3103 3103 3104 3104 3105 3107 3108 3108 3109 3110 3111 3112 3113 3114 3116 3118 3119 3121 3123 3124 3127 3129 3131 3134 3136 3137 3139 3142 3144 3145 3146 3148 3150 3152 3154 3155 3156 3157 3158 3160 3160 3159 3162 3162 3161 3165 3167 3168 3169 3170 3172 3174 3175 3176 3177 3179 3180 3182 3183 3185 3186 3188 3190 3193 3196 3198 3200 3202 3203
3117 3115 3114 3113 3111 3110 3109 3108 3108 3107 3107 3106 3106 3106 3106 3106 3105 3104 3103 3103 3103 3104 3104 3105 3107 3108 3109 3110 3110 3110 3111 3113 3114 3116 3118 3119 3121 3123 3124 3126 3128 3131 3133 3135 3137 3139 3140 3142 3144 3146 3147 3149 3150 3152 3153 3153 3154 3156 3158 3158 3158 3160 3159 3158 3160 3163 3165 3167 3168 3170 3173 3174 3175 3176 3178 3180 3181 3183 3185 3187 3188 3190 3192 3196 3198 3200 3201 3202
3116 3115 3113 3112 3110 3109 3109 3108 3107 3106 3106 3106 3106 3105 3105 3105 3104 3104 3103 3103 3103 3104 3104 3104 3106 3108 3108 3109 3110 3110 3111 3113 3114 3115 3117 3119 3121 3122 3124 3126 3128 3130 3132 3133 3136 3138 3139 3141 3143 3144 3146 3147 3148 3149 3151 3151 3152 3154 3156 3156 3156 3157 3157 3156 3157 3159 3162 3165 3167 3168 3170 3172 3173 3175 3177 3179 3181 3182 3184 3186 3188 3189 3191 3194 3197 3199 3200 3202
3116 3114 3113 3111 3110 3109 3108 3107 3107 3106 3106 3105 3105 3105 3105 3104 3104 3104 3103 3103 3103 3104 3104 3104 3105 3107 3107 3109 3111 3111 3111 3113 3114 3116 3117 3119 3121 3122 3123 3125 3127 3129 3131 3132 3135 3137 3138 3139 3141 3142 3143 3146 3147 3148 3149 3149 3150 3153 3155 3155 3155 3155 3156 3156 3157 3160 3162 3164 3167 3167 3169 3171 3172 3174 3176 3178 3180 3181 3183 3185 3187 3188 3190 3193 3196 3197 3199 3202
3116 3114 3112 3111 3110 3109 3108 3107 3106 3106 3105 3105 3105 3105 3104 3104 3104 3104 3103 3103 3103 3103 3105 3105 3105 3106 3107 3109 3112 3112 3112 3113 3115 3116 3117 3119 3120 3121 3123 3124 3126 3128 3130 3132 3135 3136 3137 3138 3139 3141 3143 3145 3146 3148 3148 3148 3149 3151 3153 3154 3153 3153 3154 3155 3157 3161 3163 3163 3166 3168 3169 3171 3172 3173 3175 3177 3178 3180 3182 3184 3186 3187 3189 3192 3194 3195 3197 3201
3115 3114 3112 3111 3110 3109 3108 3107 3106 3106 3106 3106 3105 3105 3105 3104 3104 3104 3103 3102 3102 3103 3105 3105 3105 3106 3108 3111 3113 3113 3113 3114 3115 3116 3117 3118 3120 3121 3122 3124 3126 3127 3129 3132 3134 3135 3136 3136 3138 3140 3143 3144 3145 3147 3148 3148 3149 3149 3150 3151 3151 3152 3153 3156 3158 3161 3163 3163 3164 3167 3168 3170 3172 3173 3174 3176 3177 3180 3182 3184 3186 3187 3189 3191 3193 3194 3196 3198
3115 3114 3112 3111 3110 3109 3108 3107 3107 3106 3106 3107 3106 3106 3105 3104 3104 3104 3103 3102 3102 3102 3103 3104 3105 3106 3108 3111 3112 3112 3113 3114 3115 3116 3116 3118 3119 3121 3122 3124 3125 3127 3129 3130 3132 3134 3135 3135 3137 3139 3142 3144 3144 3145 3147 3148 3148 3148 3148 3148 3148 3150 3152 3155 3159 3160 3160 3162 3164 3166 3168 3170 3171 3172 3174 3175 3178 3180 3182 3184 3186 3187 3189 3190 3192 3193 3196 3197
3116 3114 3113 3112 3110 3110 3109 3108 3107 3107 3107 3107 3107 3106 3105 3104 3104 3104 3104 3103 3102 3102 3103 3104 3106 3107 3108 3110 3111 3112 3113 3114 3115 3115 3116 3117 3119 3121 3123 3124 3126 3127 3128 3130 3131 3133 3134 3135 3137 3138 3140 3143 3143 3144 3145 3146 3147 3146 3146 3145 3145 3149 3150 3150 3155 3157 3159 3162 3163 3165 3169 3171 3170 3171 3172 3174 3176 3178 3181 3183 3184 3186 3188 3189 3191 3192 3195 3197
3116 3115 3113 3112 3111 3110 3110 3109 3108 3107 3107 3107 3107 3107 3105 3105 3105 3105 3105 3104 3103 3103 3104 3105 3107 3107 3109 3110 3111 3112 3113 3113 3114 3115 3115 3116 3118 3120 3123 3124 3125 3126 3127 3130 3131 3132 3134 3135 3136 3137 3138 3140 3142 3143 3143 3145 3146 3145 3143 3142 3143 3148 3151 3151 3152 3154 3158 3162 3161 3162 3166 3170 3170 3170 3171 3172 3174 3176 3178 3181 3183 3185 3186 3188 3190 3192 3194 3196
3117 3115 3114 3113 3112 3111 3110 3110 3108 3107 3107 3107 3107 3107 3107 3107 3107 3106 3106 3105 3104 3104 3105 3106 3107 3107 3108 3110 3111 3112 3112 3112 3114 3115 3115 3116 3118 3120 3122 3124 3125 3125 3127 3129 3131 3131 3132 3134 3136 3136 3137 3139 3140 3141 3142 3143 3144 3142 3141 3142 3143 3147 3150 3152 3152 3151 3152 3154 3155 3156 3160 3165 3169 3169 3170 3171 3173 3174 3176 3179 3181 3183 3185 3186 3189 3190 3192 3195
3117 3116 3115 3114 3113 3112 3111 3110 3109 3107 3107 3107 3108 3109 3109 3108 3108 3108 3107 3105 3104 3105 3106 3106 3107 3107 3108 3109 3111 3112 3111 3112 3113 3114 3115 3116 3118 3118 3120 3123 3124 3125 3126 3128 3129 3130 3130 3132 3134 3135 3137 3138 3138 3139 3140 3143 3143 3139 3139 3142 3145 3146 3148 3150 3151 3150 3149 3148 3151 3155 3155 3159 3164 3167 3169 3171 3172 3173 3174 3177 3179 3182 3183 3185 3187 3189 3191 3193
3118 3117 3116 3115 3114 3113 3112 3110 3110 3109 3108 3108 3109 3110 3109 3109 3109 3108 3108 3107 3105 3105 3107 3107 3107 3108 3108 3108 3110 3111 3111 3112 3112 3114 3115 3116 3118 3118 3118 3120 3123 3125 3126 3126 3126 3127 3129 3130 3132 3133 3135 3136 3137 3138 3139 3141 3141 3137 3138 3142 3144 3145 3146 3147 3149 3148 3148 3149 3152 3156 3154 3157 3163 3166 3170 3173 3172 3172 3173 3174 3176 3179 3181 3184 3185 3186 3189 3191
3118 3117 3116 3115 3115 3114 3113 3112 3111 3110 3110 3110 3111 3111 3111 3110 3109 3108 3109 3109 3106 3106 3107 3107 3108 3108 3108 3109 3109 3109 3111 3113 3113 3114 3116 3117 3117 3118 3118 3119 3121 3122 3123 3124 3124 3126 3128 3129 3130 3131 3133 3135 3135 3137 3138 3140 3139 3137 3138 3141 3141 3142 3143 3144 3145 3145 3146 3148 3150 3153 3151 3154 3163 3165 3166 3170 3170 3169 3171 3173 3175 3177 3179 3181 3183 3185 3187 3189
3119 3118 3117 3116 3115 3115 3114 3113 3112 3112 3111 3111 3112 3113 3111 3110 3110 3109 3109 3108 3106 3106 3107 3107 3108 3109 3109 3110 3110 3110 3111 3114 3115 3115 3116 3117 3117 3117 3118 3119 3120 3120 3120 3121 3121 3123 3126 3127 3128 3129 3131 3133 3134 3135 3136 3138 3139 3139 3140 3140 3138 3140 3141 3143 3144 3144 3145 3146 3147 3151 3149 3149 3159 3164 3161 3162 3164 3166 3169 3171 3173 3175 3177 3179 3181 3183 3185 3187
3119 3118 3118 3117 3116 3116 3115 3114 3113 3113 3112 3112 3114 3113 3111 3111 3111 3110 3109 3108 3107 3107 3107 3107 3107 3109 3110 3110 3111 3110 3111 3113 3115 3115 3116 3117 3118 3118 3119 3119 3120 3120 3121 3121 3120 3120 3124 3126 3126 3128 3130 3131 3132 3133 3136 3137 3138 3139 3140 3139 3139 3139 3140 3142 3144 3144 3146 3145 3144 3148 3149 3148 3153 3158 3159 3161 3164 3166 3168 3169 3171 3172 3174 3177 3179 3181 3184 3186
3119 3118 3118 3118 3117 3116 3116 3115 3115 3115 3114 3114 3115 3113 3112 3112 3112 3111 3109 3108 3108 3107 3107 3107 3107 3109 3110 3110 3111 3111 3111 3112 3114 3115 3116 3116 3118 3119 3119 3119 3119 3120 3121 3122 3121 3120 3122 3124 3125 3126 3128 3129 3130 3132 3135 3136 3137 3138 3139 3139 3140 3140 3141 3143 3144 3144 3145 3144 3144 3146 3149 3149 3150 3153 3158 3162 3164 3167 3169 3170 3171 3173 3175 3176 3178 3180 3183 3185
3119 3119 3118 3118 3118 3117 3117 3117 3117 3116 3116 3116 3115 3113 3113 3114 3113 3111 3110 3109 3109 3108 3107 3108 3108 3109 3110 3110 3111 3112 3111 3112 3113 3115 3116 3116 3118 3118 3119 3119 3119 3120 3121 3120 3120 3120 3122 3122 3123 3125 3126 3129 3131 3131 3133 3135 3136 3137 3137 3137 3139 3140 3143 3145 3144 3144 3145 3143 3143 3145 3147 3150 3152 3154 3158 3161 3163 3166 3168 3170 3172 3174 3175 3177 3178 3180 3182 3183
3119 3118 3118 3118 3118 3118 3118 3118 3118 3117 3117 3116 3116 3114 3114 3115 3113 3111 3110 3110 3110 3109 3108 3109 3108 3109 3109 3109 3110 3112 3112 3112 3113 3114 3115 3116 3117 3118 3118 3119 3119 3120 3121 3120 3119 3120 3121 3121 3122 3124 3125 3128 3131 3131 3132 3135 3136 3136 3137 3138 3138 3138 3141 3144 3144 3145 3146 3145 3144 3145 3149 3153 3154 3156 3160 3162 3163 3164 3166 3168 3171 3173 3175 3176 3178 3180 3181 3183
3118 3118 3118 3117 3117 3118 3118 3118 3119 3118 3117 3116 3116 3116 3116 3115 3114 3113 3112 3111 3111 3110 3109 3109 3108 3109 3110 3109 3110 3112 3112 3113 3114 3114 3115 3116 3117 3118 3119 3119 3120 3120 3121 3120 3119 3119 3120 3120 3121 3124 3124 3126 3129 3130 3131 3134 3135 3136 3137 3137 3138 3138 3139 3142 3143 3144 3145 3145 3145 3146 3152 3157 3158 3159 3162 3162 3162 3163 3165 3167 3169 3171 3173 3174 3176 3178 3179 3181
3117 3118 3118 3118 3117 3117 3118 3119 3119 3118 3118 3117 3117 3118 3117 3116 3116 3115 3114 3113 3113 3111 3109 3109 3109 3109 3109 3110 3111 3113 3112 3113 3114 3114 3115 3116 3117 3118 3118 3119 3120 3119 3119 3119 3120 3120 3120 3119 3120 3123 3124 3124 3127 3129 3130 3133 3134 3134 3135 3136 3137 3139 3140 3141 3142 3143 3144 3146 3149 3149 3153 3158 3159 3161 3163 3161 3161 3162 3164 3166 3167 3169 3171 3172 3174 3176 3177 3179
3116 3117 3118 3118 3117 3116 3117 3118 3119 3118 3118 3118 3118 3118 3118 3117 3117 3116 3115 3115 3114 3113 3111 3110 3110 3109 3109 3110 3112 3114 3113 3113 3114 3114 3116 3116 3116 3117 3118 3119 3119 3118 3119 3120 3121 3122 3120 3118 3118 3120 3123 3124 3126 3128 3130 3131 3133 3134 3135 3136 3138 3139 3139 3140 3142 3143 3143 3145 3149 3150 3150 3152 3155 3158 3161 3161 3161 3162 3163 3165 3166 3168 3170 3171 3173 3175 3175 3175
3116 3116 3117 3117 3116 3116 3118 3119 3119 3119 3118 3119 3119 3119 3118 3118 3118 3117 3116 3116 3115 3114 3114 3112 3111 3111 3111 3112 3113 3115 3114 3114 3114 3115 3116 3116 3116 3117 3118 3119 3119 3119 3120 3121 3121 3122 3121 3120 3118 3118 3120 3123 3125 3127 3128 3129 3131 3133 3134 3135 3137 3137 3137 3139 3140 3143 3143 3143 3149 3153 3152 3152 3153 3154 3157 3159 3160 3160 3161 3164 3166 3169 3171 3171 3173 3174 3172 3172
3117 3117 3117 3117 3116 3117 3120 3120 3119 3119 3119 3120 3120 3119 3118 3119 3119 3118 3117 3117 3116 3115 3115 3114 3114 3113 3112 3113 3114 3115 3115 3115 3115 3116 3116 3117 3117 3118 3119 3119 3120 3120 3121 3122 3122 3122 3122 3122 3120 3118 3119 3122 3124 3125 3127 3129 3130 3131 3132 3134 3135 3136 3136 3138 3139 3141 3141 3141 3148 3158 3159 3156 3155 3154 3155 3157 3158 3158 3159 3162 3164 3167 3169 3170 3172 3173 3171 3171
3117 3116 3116 3117 3119 3120 3120 3120 3119 3118 3119 3120 3120 3119 3119 3119 3119 3118 3118 3118 3117 3116 3116 3116 3115 3115 3114 3114 3114 3116 3117 3116 3115 3117 3119 3119 3120 3120 3120 3120 3120 3121 3121 3122 3123 3123 3123 3123 3122 3119 3120 3123 3124 3125 3126 3129 3130 3131 3132 3133 3135 3136 3136 3137 3138 3139 3139 3139 3145 3155 3160 3159 3157 3156 3155 3155 3155 3156 3158 3161 3163 3164 3165 3166 3168 3168 3168 3169
3117 3116 3117 3119 3121 3121 3120 3119 3118 3117 3119 3120 3120 3120 3120 3119 3119 3119 3118 3118 3117 3117 3117 3117 3117 3117 3117 3116 3116 3116 3117 3116 3116 3119 3120 3121 3121 3122 3122 3122 3122 3122 3122 3123 3124 3124 3123 3124 3124 3123 3123 3124 3125 3126 3126 3127 3129 3130 3132 3133 3134 3135 3137 3137 3138 3137 3137 3138 3140 3146 3155 3159 3158 3158 3158 3155 3155 3157 3159 3161 3163 3163 3163 3164 3165 3166 3166 3167
3117 3116 3117 3119 3120 3120 3120 3119 3118 3118 3119 3120 3120 3120 3120 3119 3119 3119 3119 3118 3118 3119 3119 3118 3119 3119 3119 3118 3117 3116 3117 3117 3118 3119 3120 3121 3122 3123 3123 3123 3123 3123 3123 3124 3125 3125 3125 3125 3125 3124 3125 3124 3124 3126 3127 3127 3127 3129 3132 3135 3135 3136 3137 3137 3138 3137 3136 3137 3137 3140 3148 3157 3158 3158 3158 3157 3158 3160 3161 3163 3164 3164 3164 3163 3163 3164 3165 3166
3117 3116 3116 3119 3120 3119 3119 3120 3119 3119 3119 3120 3120 3120 3119 3119 3119 3119 3119 3119 3119 3119 3119 3119 3120 3120 3120 3120 3120 3119 3119 3119 3119 3120 3121 3122 3123 3123 3123 3124 3124 3123 3124 3125 3126 3126 3126 3126 3126 3125 3125 3124 3123 3125 3128 3128 3130 3131 3132 3134 3135 3135 3137 3137 3138 3137 3137 3138 3139 3141 3148 3155 3156 3157 3158 3158 3159 3161 3163 3164 3165 3165 3165 3164 3164 3164 3165 3167
3118 3116 3116 3118 3120 3119 3119 3120 3120 3120 3119 3119 3120 3119 3119 3119 3119 3118 3118 3119 3119 3120 3120 3120 3120 3120 3121 3121 3122 3122 3121 3121 3121 3122 3123 3123 3123 3124 3124 3124 3124 3124 3124 3125 3125 3126 3126 3127 3127 3126 3126 3125 3123 3125 3128 3129 3130 3131 3131 3132 3133 3134 3136 3138 3137 3136 3138 3140 3139 3141 3148 3152 3153 3156 3159 3159 3159 3160 3161 3163 3164 3164 3164 3164 3165 3165 3165 3166
3118 3117 3117 3119 3120 3119 3119 3120 3120 3120 3120 3120 3120 3120 3120 3119 3119 3119 3119 3119 3120 3120 3121 3121 3121 3121 3121 3122 3123 3123 3122 3123 3124 3123 3124 3124 3124 3125 3125 3124 3124 3125 3125 3125 3125 3126 3127 3127 3127 3127 3129 3129 3127 3127 3129 3129 3130 3131 3131 3132 3133 3133 3134 3137 3135 3134 3138 3141 3140 3141 3146 3151 3153 3155 3157 3158 3158 3158 3159 3161 3162 3162 3163 3163 3164 3164 3165 3165
3118 3118 3118 3119 3119 3120 3120 3120 3120 3120 3120 3120 3120 3120 3120 3120 3119 3119 3119 3120 3120 3120 3121 3121 3121 3121 3121 3121 3122 3123 3122 3123 3124 3124 3124 3125 3125 3125 3125 3125 3125 3126 3126 3126 3126 3126 3127 3127 3127 3127 3129 3130 3128 3128 3129 3129 3130 3132 3132 3132 3133 3132 3134 3136 3135 3135 3136 3138 3140 3141 3144 3148 3153 3155 3155 3156 3157 3158 3159 3160 3160 3160 3161 3161 3162 3163 3164 3165
3116 3118 3119 3119 3120 3120 3120 3120 3120 3120 3120 3119 3119 3120 3120 3120 3120 3119 3119 3120 3120 3120 3120 3121 3121 3121 3120 3121 3122 3123 3123 3124 3125 3125 3125 3125 3125 3125 3125 3125 3125 3126 3126 3126 3126 3126 3127 3127 3127 3128 3129 3130 3129 3128 3129 3130 3131 3132 3132 3132 3131 3130 3134 3136 3135 3136 3136 3136 3140 3143 3144 3147 3152 3154 3155 3156 3157 3157 3158 3159 3159 3160 3160 3160 3161 3162 3164 3165
3115 3117 3119 3120 3120 3120 3119 3120 3120 3120 3120 3120 3120 3120 3120 3120 3120 3120 3120 3120 3120 3120 3120 3121 3121 3121 3121 3121 3122 3123 3123 3124 3125 3125 3125 3125 3125 3126 3126 3125 3125 3125 3126 3125 3125 3126 3127 3128 3128 3129 3130 3130 3130 3130 3130 3131 3131 3132 3132 3132 3131 3131 3133 3133 3132 3134 3135 3135 3138 3142 3144 3145 3149 3152 3154 3156 3157 3157 3158 3159 3159 3159 3159 3159 3160 3161 3163 3165
3116 3116 3117 3118 3119 3119 3120 3120 3121 3121 3120 3120 3120 3120 3120 3120 3120 3120 3120 3120 3121 3120 3120 3121 3121 3121 3121 3120 3121 3122 3122 3123 3124 3125 3125 3125 3125 3126 3126 3125 3125 3125 3125 3125 3125 3127 3128 3128 3129 3129 3128 3129 3130 3130 3131 3131 3132 3132 3132 3132 3132 3133 3132 3129 3129 3131 3133 3134 3137 3141 3144 3146 3148 3150 3152 3154 3157 3158 3159 3160 3160 3160 3159 3159 3159 3160 3162 3164
3117 3117 3117 3117 3118 3119 3120 3120 3121 3121 3120 3120 3120 3121 3121 3121 3120 3120 3120 3120 3121 3121 3121 3121 3121 3121 3121 3120 3121 3122 3122 3123 3124 3124 3126 3126 3126 3126 3126 3125 3126 3126 3126 3126 3126 3127 3128 3129 3129 3129 3128 3129 3130 3131 3132 3132 3132 3132 3132 3132 3133 3133 3131 3129 3130 3132 3134 3136 3138 3141 3145 3148 3151 3152 3152 3152 3155 3157 3159 3159 3160 3160 3160 3159 3159 3160 3162 3163
3117 3118 3118 3118 3118 3119 3119 3120 3121 3121 3121 3120 3121 3121 3121 3121 3120 3121 3121 3120 3121 3121 3121 3121 3122 3121 3121 3121 3121 3122 3123 3123 3124 3124 3125 3126 3126 3126 3126 3126 3126 3127 3127 3127 3127 3128 3129 3129 3130 3131 3130 3130 3131 3131 3132 3133 3133 3134 3134 3134 3133 3133 3133 3133 3132 3133 3136 3139 3140 3142 3144 3147 3150 3153 3153 3153 3154 3156 3158 3159 3159 3159 3160 3159 3160 3161 3162 3163
3117 3118 3118 3119 3119 3118 3119 3121 3121 3121 3121 3121 3121 3121 3121 3121 3121 3121 3121 3121 3121 3121 3121 3121 3122 3121 3121 3121 3121 3121 3122 3122 3123 3124 3125 3125 3126 3127 3127 3127 3127 3127 3127 3127 3128 3129 3129 3129 3130 3131 3131 3131 3131 3132 3132 3133 3134 3135 3135 3135 3134 3134 3134 3135 3134 3135 3137 3140 3141 3143 3145 3148 3150 3151 3152 3153 3155 3156 3157 3157 3158 3158 3158 3158 3159 3160 3161 3163